EW0607 Weather Reports


Display with metric or nautical units.
time (UTC)temp
F
wind
direction
speed
MPH
gust
MPH
rain 1hr
in
rain 24hr
in
rain mn
in
humidity
%
barometer
mb
20260903074552 79 360 0.0 0.0 0.00 0.00 0.00 13 1002.7
20260903074028 79 360 0.0 0.0 0.00 0.00 0.00 13 1002.6
20260903073503 79 360 0.0 0.0 0.00 0.00 0.00 13 1002.6
20260903073047 79 360 0.0 0.0 0.00 0.00 0.00 13 1002.6
20260903072529 79 360 0.0 0.0 0.00 0.00 0.00 12 1002.5
20260903072007 79 360 0.0 0.0 0.00 0.00 0.00 12 1002.6
20260903071554 79 360 0.0 0.0 0.00 0.00 0.00 12 1002.6
20260903071030 79 360 0.0 0.0 0.00 0.00 0.00 12 1002.4
20260903070514 79 360 0.0 0.0 0.00 0.00 0.00 12 1002.5
20260903070057 80 360 0.0 0.0 0.00 0.00 0.00 11 1002.4
20260903065539 80 360 0.0 0.0 0.00 0.00 0.00 11 1002.5
20260903065019 80 360 0.0 0.0 0.00 0.00 0.00 11 1002.4
20260903064605 79 360 0.0 0.0 0.00 0.00 0.00 11 1002.4
20260903064042 79 360 0.0 0.0 0.00 0.00 0.00 11 1002.3
20260903063521 79 360 0.0 0.0 0.00 0.00 0.00 11 1002.4
20260903063103 79 360 0.0 0.0 0.00 0.00 0.00 11 1002.4
20260903062544 79 360 0.0 0.0 0.00 0.00 0.00 11 1002.5
20260903062027 79 360 0.0 0.0 0.00 0.00 0.00 11 1002.3
20260903061604 79 360 0.0 0.0 0.00 0.00 0.00 11 1002.3
20260903061042 79 360 0.0 0.0 0.00 0.00 0.00 10 1002.2
20260903060524 79 360 1.0 0.0 0.00 0.00 0.00 10 1002.3
20260903060003 80 360 1.0 0.0 0.00 0.00 0.00 10 1002.4
20260903055547 80 360 2.0 0.0 0.00 0.00 0.00 10 1002.4
20260903055026 80 360 2.0 0.0 0.00 0.00 0.00 10 1002.5
20260903054518 80 360 2.0 0.0 0.00 0.00 0.00 10 1002.5
20260903054052 80 360 2.0 0.0 0.00 0.00 0.00 9 1002.4
20260903053534 80 360 1.0 0.0 0.00 0.00 0.00 9 1002.1
20260903053011 82 360 1.0 0.0 0.00 0.00 0.00 8 1002.1
20260903052554 83 360 1.0 0.0 0.00 0.00 0.00 8 1002.1
20260903052038 83 360 1.0 0.0 0.00 0.00 0.00 8 1002.0
20260903051519 83 360 1.0 0.0 0.00 0.00 0.00 8 1002.0
20260903051004 84 360 1.0 0.0 0.00 0.00 0.00 8 1001.9
20260903050549 83 360 1.0 0.0 0.00 0.00 0.00 8 1001.9
20260903050034 83 360 1.0 0.0 0.00 0.00 0.00 8 1002.0
20260903045521 83 360 1.0 0.0 0.00 0.00 0.00 8 1002.2
20260903045002 83 360 1.0 0.0 0.00 0.00 0.00 8 1002.2
20260903044553 83 360 0.0 0.0 0.00 0.00 0.00 8 1002.2
20260903044031 83 360 0.0 0.0 0.00 0.00 0.00 9 1002.3
20260903043507 83 360 0.0 0.0 0.00 0.00 0.00 8 1002.1
20260903043051 83 360 0.0 0.0 0.00 0.00 0.00 8 1002.1
20260903042535 84 360 1.0 0.0 0.00 0.00 0.00 8 1002.0
20260903042016 84 360 1.0 0.0 0.00 0.00 0.00 7 1002.0
20260903041605 84 360 1.0 0.0 0.00 0.00 0.00 7 1001.9
20260903041039 85 360 1.0 0.0 0.00 0.00 0.00 7 1001.8
20260903040521 85 360 1.0 0.0 0.00 0.00 0.00 7 1001.8
20260903040004 84 360 1.0 0.0 0.00 0.00 0.00 7 1001.8
20260903035547 84 360 1.0 0.0 0.00 0.00 0.00 7 1002.1
20260903035029 84 360 1.0 0.0 0.00 0.00 0.00 7 1002.0
20260903034509 84 360 1.0 0.0 0.00 0.00 0.00 7 1002.0
20260903034056 84 360 1.0 0.0 0.00 0.00 0.00 7 1002.0
20260903033538 85 360 1.0 0.0 0.00 0.00 0.00 7 1002.0
20260903033019 84 360 1.0 0.0 0.00 0.00 0.00 7 1001.9
20260903032604 84 360 1.0 0.0 0.00 0.00 0.00 7 1001.9
20260903032042 84 360 2.0 0.0 0.00 0.00 0.00 7 1001.9
20260903031521 84 360 2.0 0.0 0.00 0.00 0.00 6 1001.9
20260903031003 85 360 1.0 0.0 0.00 0.00 0.00 6 1001.9
20260903030548 85 360 0.0 0.0 0.00 0.00 0.00 6 1001.9
20260903030038 85 360 0.0 0.0 0.00 0.00 0.00 5 1001.8
20260903025505 86 360 0.0 0.0 0.00 0.00 0.00 5 1002.3
20260903025050 86 360 1.0 0.0 0.00 0.00 0.00 5 1002.2
20260903024540 86 360 1.0 0.0 0.00 0.00 0.00 5 1002.0
20260903024014 86 360 0.0 0.0 0.00 0.00 0.00 5 1002.0
20260903023558 86 360 1.0 0.0 0.00 0.00 0.00 5 1002.0
20260903023041 87 360 1.0 0.0 0.00 0.00 0.00 5 1001.9
20260903022520 87 360 1.0 0.0 0.00 0.00 0.00 4 1001.9
20260903022102 87 360 1.0 0.0 0.00 0.00 0.00 5 1001.8
20260903021548 87 360 1.0 0.0 0.00 0.00 0.00 5 1001.9
20260903021023 88 360 1.0 0.0 0.00 0.00 0.00 6 1002.0
20260903020502 88 360 1.0 0.0 0.00 0.00 0.00 4 1002.0
20260903020047 88 360 2.0 0.0 0.00 0.00 0.00 4 1001.9
20260903015529 89 360 2.0 0.0 0.00 0.00 0.00 3 1002.4
20260903015010 89 360 1.0 0.0 0.00 0.00 0.00 4 1002.3
20260903014554 89 360 1.0 0.0 0.00 0.00 0.00 5 1002.1
20260903014038 89 360 1.0 0.0 0.00 0.00 0.00 5 1002.0
20260903013516 90 360 2.0 0.0 0.00 0.00 0.00 4 1002.1
20260903013106 90 247 2.0 0.0 0.00 0.00 0.00 4 1002.1
20260903012542 91 360 2.0 0.0 0.00 0.00 0.00 4 1002.0
20260903012027 91 144 2.0 0.0 0.00 0.00 0.00 4 1002.0
20260903011512 91 234 2.0 0.0 0.00 0.00 0.00 4 1001.9
20260903011054 91 87 2.0 0.0 0.00 0.00 0.00 4 1001.9
20260903010532 92 320 2.0 0.0 0.00 0.00 0.00 4 1001.9
20260903010016 92 82 2.0 0.0 0.00 0.00 0.00 4 1001.8
20260903005602 92 126 2.0 0.0 0.00 0.00 0.00 4 1001.8
20260903005044 92 64 2.0 0.0 0.00 0.00 0.00 4 1001.8
20260903004530 92 10 2.0 0.0 0.00 0.00 0.00 4 1001.8
20260903004006 93 250 2.0 0.0 0.00 0.00 0.00 4 1001.8
20260903003550 93 34 2.0 0.0 0.00 0.00 0.00 4 1001.8
20260903003034 93 80 2.0 0.0 0.00 0.00 0.00 4 1001.8
20260903002515 93 263 2.0 0.0 0.00 0.00 0.00 4 1001.8
20260903002057 93 295 2.0 0.0 0.00 0.00 0.00 3 1001.8
20260903001540 94 221 2.0 0.0 0.00 0.00 0.00 4 1001.9
20260903001024 94 230 2.0 0.0 0.00 0.00 0.00 3 1001.9
20260903000501 94 248 2.0 0.0 0.00 0.00 0.00 4 1001.7
20260903000053 94 208 2.0 0.0 0.00 0.00 0.00 3 1001.7
20260902235528 94 360 2.0 0.0 0.00 0.00 0.00 4 1001.5
20260902235007 94 360 3.0 0.0 0.00 0.00 0.00 3 1001.5
20260902234550 94 360 3.0 0.0 0.00 0.00 0.00 3 1001.5
20260902234030 95 360 2.0 0.0 0.00 0.00 0.00 3 1001.5
20260902233508 94 360 2.0 0.0 0.00 0.00 0.00 3 1001.5
20260902233050 95 360 3.0 0.0 0.00 0.00 0.00 3 1001.7
20260902232530 94 360 3.0 0.0 0.00 0.00 0.00 3 1001.7
20260902232011 94 360 4.0 0.0 0.00 0.00 0.00 3 1001.7
20260902231558 95 360 3.0 0.0 0.00 0.00 0.00 3 1001.8
20260902231043 95 360 2.0 0.0 0.00 0.00 0.00 3 1001.8
20260902230518 95 360 3.0 0.0 0.00 0.00 0.00 3 1001.8
20260902225541 95 360 3.0 0.0 0.00 0.00 0.00 3 1001.8
20260902225020 95 360 4.0 0.0 0.00 0.00 0.00 3 1001.9
20260902224604 95 360 3.0 0.0 0.00 0.00 0.00 3 1001.9
20260902224050 95 360 2.0 0.0 0.00 0.00 0.00 3 1001.9
20260902223529 96 360 2.0 0.0 0.00 0.00 0.00 3 1002.1
20260902223007 96 360 2.0 0.0 0.00 0.00 0.00 3 1002.1
20260902222548 95 360 3.0 0.0 0.00 0.00 0.00 3 1002.2
20260902222029 95 360 3.0 0.0 0.00 0.00 0.00 3 1002.3
20260902221507 95 360 3.0 0.0 0.00 0.00 0.00 3 1002.2
20260902221052 96 360 3.0 0.0 0.00 0.00 0.00 3 1002.5
20260902220535 96 360 3.0 0.0 0.00 0.00 0.00 4 1002.5
20260902220013 96 360 3.0 0.0 0.00 0.00 0.00 3 1002.5
20260902215556 95 360 3.0 0.0 0.00 0.00 0.00 3 1002.4
20260902215041 95 360 3.0 0.0 0.00 0.00 0.00 3 1002.4
20260902214519 95 360 3.0 0.0 0.00 0.00 0.00 3 1002.5
20260902214101 95 360 3.0 0.0 0.00 0.00 0.00 3 1002.6
20260902213540 95 360 3.0 0.0 0.00 0.00 0.00 3 1002.6
20260902213019 95 360 3.0 0.0 0.00 0.00 0.00 3 1002.6
20260902212602 95 360 3.0 0.0 0.00 0.00 0.00 3 1002.6
20260902212039 95 360 3.0 0.0 0.00 0.00 0.00 3 1002.7
20260902211518 95 360 3.0 0.0 0.00 0.00 0.00 3 1002.7
20260902211102 95 360 3.0 0.0 0.00 0.00 0.00 3 1002.7
20260902210542 95 360 3.0 0.0 0.00 0.00 0.00 3 1002.7
20260902210024 95 360 3.0 0.0 0.00 0.00 0.00 3 1002.8
20260902205506 95 360 3.0 0.0 0.00 0.00 0.00 4 1002.9
20260902205047 94 360 3.0 0.0 0.00 0.00 0.00 3 1002.9
20260902204537 95 360 3.0 0.0 0.00 0.00 0.00 3 1002.8
20260902204006 94 360 3.0 0.0 0.00 0.00 0.00 3 1002.9
20260902203551 94 360 3.0 0.0 0.00 0.00 0.00 3 1003.0
20260902203032 94 360 3.0 0.0 0.00 0.00 0.00 3 1003.0
20260902202510 94 360 3.0 0.0 0.00 0.00 0.00 3 1003.1
20260902202054 94 360 3.0 0.0 0.00 0.00 0.00 3 1003.2
20260902201533 94 360 3.0 0.0 0.00 0.00 0.00 3 1003.3
20260902201014 94 360 4.0 0.0 0.00 0.00 0.00 3 1003.3
20260902200557 94 360 4.0 0.0 0.00 0.00 0.00 3 1003.4
20260902200037 94 360 4.0 0.0 0.00 0.00 0.00 3 1003.4
20260902195515 93 360 3.0 0.0 0.00 0.00 0.00 3 1003.3
20260902195058 94 360 3.0 0.0 0.00 0.00 0.00 3 1003.3
20260902194544 94 360 3.0 0.0 0.00 0.00 0.00 3 1003.4
20260902194027 94 360 3.0 0.0 0.00 0.00 0.00 3 1003.4
20260902193503 94 360 2.0 0.0 0.00 0.00 0.00 3 1003.5
20260902193048 94 360 2.0 0.0 0.00 0.00 0.00 3 1003.6
20260902192528 93 360 2.0 0.0 0.00 0.00 0.00 3 1003.7
20260902192007 93 360 2.0 0.0 0.00 0.00 0.00 4 1003.8
20260902191553 93 360 2.0 0.0 0.00 0.00 0.00 4 1004.0
20260902191035 93 360 2.0 0.0 0.00 0.00 0.00 3 1003.9
20260902190510 93 360 2.0 0.0 0.00 0.00 0.00 4 1004.2
20260902190054 93 360 2.0 0.0 0.00 0.00 0.00 3 1004.1
20260902185538 93 360 2.0 0.0 0.00 0.00 0.00 4 1004.2
20260902185014 92 360 3.0 0.0 0.00 0.00 0.00 3 1004.1
20260902184556 92 360 2.0 0.0 0.00 0.00 0.00 3 1004.3
20260902184040 92 360 2.0 0.0 0.00 0.00 0.00 4 1004.4
20260902183518 92 360 2.0 0.0 0.00 0.00 0.00 4 1004.4
20260902183059 91 360 2.0 0.0 0.00 0.00 0.00 4 1004.5
20260902182535 91 360 2.0 0.0 0.00 0.00 0.00 4 1004.6
20260902182015 91 360 3.0 0.0 0.00 0.00 0.00 4 1004.7
20260902181612 90 360 3.0 0.0 0.00 0.00 0.00 3 1004.7
20260902181035 90 360 2.0 0.0 0.00 0.00 0.00 4 1004.8
20260902180514 90 360 2.0 0.0 0.00 0.00 0.00 4 1004.8
20260902180100 90 360 2.0 0.0 0.00 0.00 0.00 4 1004.8
20260902175539 90 360 3.0 0.0 0.00 0.00 0.00 5 1004.7
20260902175018 90 360 3.0 0.0 0.00 0.00 0.00 4 1004.7
20260902174501 90 360 2.0 0.0 0.00 0.00 0.00 5 1004.8
20260902174042 89 360 3.0 0.0 0.00 0.00 0.00 4 1004.8
20260902173522 89 360 2.0 0.0 0.00 0.00 0.00 5 1004.8
20260902173103 89 360 2.0 0.0 0.00 0.00 0.00 5 1004.8
20260902172549 89 360 2.0 0.0 0.00 0.00 0.00 5 1004.9
20260902172023 89 360 2.0 0.0 0.00 0.00 0.00 5 1004.9
20260902171501 88 360 2.0 0.0 0.00 0.00 0.00 6 1005.1
20260902171043 88 360 3.0 0.0 0.00 0.00 0.00 6 1005.1
20260902170522 87 360 3.0 0.0 0.00 0.00 0.00 6 1005.0
20260902170105 87 360 3.0 0.0 0.00 0.00 0.00 5 1005.1
20260902165549 86 360 5.0 0.0 0.00 0.00 0.00 6 1005.1
20260902165028 86 360 5.0 0.0 0.00 0.00 0.00 6 1005.2
20260902164505 86 360 6.0 0.0 0.00 0.00 0.00 7 1005.2
20260902164050 85 360 6.0 0.0 0.00 0.00 0.00 8 1005.4
20260902163527 84 360 6.0 0.0 0.00 0.00 0.00 8 1005.3
20260902163005 84 360 5.0 0.0 0.00 0.00 0.00 8 1005.4
20260902162551 84 360 4.0 0.0 0.00 0.00 0.00 8 1005.3
20260902162028 83 360 5.0 0.0 0.00 0.00 0.00 8 1005.2
20260902161507 83 360 5.0 0.0 0.00 0.00 0.00 9 1005.4
20260902161049 83 360 5.0 0.0 0.00 0.00 0.00 9 1005.4
20260902160526 82 360 5.0 0.0 0.00 0.00 0.00 9 1005.4
20260902160009 82 360 5.0 0.0 0.00 0.00 0.00 9 1005.5
20260902155548 82 360 5.0 0.0 0.00 0.00 0.00 8 1005.1
20260902155026 81 360 6.0 0.0 0.00 0.00 0.00 9 1005.4
20260902154504 81 360 7.0 0.0 0.00 0.00 0.00 9 1005.1
20260902154049 81 360 6.0 0.0 0.00 0.00 0.00 9 1005.4
20260902153529 81 360 4.0 0.0 0.00 0.00 0.00 9 1005.1
20260902153004 80 360 5.0 0.0 0.00 0.00 0.00 10 1005.0
20260902152556 80 360 6.0 0.0 0.00 0.00 0.00 10 1005.3
20260902152033 79 360 7.0 0.0 0.00 0.00 0.00 10 1005.0
20260902151509 78 360 7.0 0.0 0.00 0.00 0.00 11 1005.3
20260902151051 78 360 8.0 0.0 0.00 0.00 0.00 10 1004.8
20260902150529 77 360 8.0 0.0 0.00 0.00 0.00 12 1005.5
20260902150004 76 360 7.0 0.0 0.00 0.00 0.00 11 1005.1
20260902145548 76 360 5.0 0.0 0.00 0.00 0.00 12 1005.3
20260902145024 75 360 4.0 0.0 0.00 0.00 0.00 13 1005.3
20260902144604 75 360 4.0 0.0 0.00 0.00 0.00 13 1005.3
20260902144043 75 360 5.0 0.0 0.00 0.00 0.00 14 1005.5
20260902143522 74 360 4.0 0.0 0.00 0.00 0.00 14 1005.3
20260902143001 73 360 3.0 0.0 0.00 0.00 0.00 14 1005.5
20260902142544 72 360 3.0 0.0 0.00 0.00 0.00 15 1005.5
20260902134042 70 360 1.0 0.0 0.00 0.00 0.00 16 1005.4
20260902133521 70 360 1.0 0.0 0.00 0.00 0.00 16 1005.5
20260902133105 70 360 1.0 0.0 0.00 0.00 0.00 16 1005.5
20260902132551 70 360 1.0 0.0 0.00 0.00 0.00 16 1005.4
20260902132030 71 360 1.0 0.0 0.00 0.00 0.00 16 1005.2
20260902131510 70 360 1.0 0.0 0.00 0.00 0.00 16 1005.2
20260902131053 70 360 0.0 0.0 0.00 0.00 0.00 17 1005.2
20260902130534 70 360 1.0 0.0 0.00 0.00 0.00 17 1005.1
20260902130012 71 360 1.0 0.0 0.00 0.00 0.00 16 1004.9
20260902125555 71 360 1.0 0.0 0.00 0.00 0.00 16 1004.6
20260902125040 71 360 1.0 0.0 0.00 0.00 0.00 16 1004.5
20260902124528 71 360 1.0 0.0 0.00 0.00 0.00 16 1004.5
20260902124004 71 360 1.0 0.0 0.00 0.00 0.00 16 1004.4
20260902123551 71 360 1.0 0.0 0.00 0.00 0.00 15 1004.4
20260902123036 70 360 1.0 0.0 0.00 0.00 0.00 16 1004.5
20260902122515 69 360 1.0 0.0 0.00 0.00 0.00 16 1004.5
20260902122057 69 360 1.0 0.0 0.00 0.00 0.00 16 1004.4
20260902121538 69 360 1.0 0.0 0.00 0.00 0.00 16 1004.4
20260902121014 72 360 0.0 0.0 0.00 0.00 0.00 15 1004.2
20260902120600 72 360 0.0 0.0 0.00 0.00 0.00 15 1004.0
20260902120036 72 360 0.0 0.0 0.00 0.00 0.00 15 1004.1
20260902115516 72 360 0.0 0.0 0.00 0.00 0.00 15 1004.0
20260902115059 72 360 1.0 0.0 0.00 0.00 0.00 15 1004.0
20260902114539 72 360 1.0 0.0 0.00 0.00 0.00 15 1004.0
20260902114021 71 360 1.0 0.0 0.00 0.00 0.00 15 1004.1
20260902113600 71 360 1.0 0.0 0.00 0.00 0.00 15 1004.1
20260902113044 71 360 1.0 0.0 0.00 0.00 0.00 15 1004.0
20260902112521 72 360 1.0 0.0 0.00 0.00 0.00 14 1003.9
20260902112106 72 360 0.0 0.0 0.00 0.00 0.00 15 1003.8
20260902111545 72 360 0.0 0.0 0.00 0.00 0.00 14 1003.8
20260902111026 73 360 0.0 0.0 0.00 0.00 0.00 13 1003.7
20260902110505 74 360 0.0 0.0 0.00 0.00 0.00 13 1003.6
20260902110049 75 360 0.0 0.0 0.00 0.00 0.00 13 1003.6
20260902105527 75 360 0.0 0.0 0.00 0.00 0.00 13 1003.4
20260902105009 75 360 0.0 0.0 0.00 0.00 0.00 13 1003.3
20260902104553 75 360 0.0 0.0 0.00 0.00 0.00 13 1003.3
20260902104034 75 360 0.0 0.0 0.00 0.00 0.00 13 1003.3
20260902103519 75 360 0.0 0.0 0.00 0.00 0.00 13 1003.4
20260902103109 75 360 0.0 0.0 0.00 0.00 0.00 13 1003.4
20260902102543 75 360 0.0 0.0 0.00 0.00 0.00 13 1003.5
20260902102022 76 360 0.0 0.0 0.00 0.00 0.00 13 1003.7
20260902101605 76 360 0.0 0.0 0.00 0.00 0.00 12 1003.6
20260902101044 76 360 0.0 0.0 0.00 0.00 0.00 12 1003.5
20260902100531 76 360 0.0 0.0 0.00 0.00 0.00 12 1003.5
20260902100013 76 360 0.0 0.0 0.00 0.00 0.00 12 1003.6
20260902095556 76 360 0.0 0.0 0.00 0.00 0.00 12 1003.6
20260902095035 77 360 0.0 0.0 0.00 0.00 0.00 12 1003.6
20260902094515 77 360 0.0 0.0 0.00 0.00 0.00 12 1003.6
20260902094059 77 360 0.0 0.0 0.00 0.00 0.00 12 1003.5
20260902093542 77 360 0.0 0.0 0.00 0.00 0.00 12 1003.7
20260902093023 77 360 0.0 0.0 0.00 0.00 0.00 13 1003.7
20260902092503 76 360 0.0 0.0 0.00 0.00 0.00 13 1003.7
20260902092050 76 360 0.0 0.0 0.00 0.00 0.00 13 1003.7
20260902091536 77 360 0.0 0.0 0.00 0.00 0.00 13 1003.7
20260902091012 77 360 0.0 0.0 0.00 0.00 0.00 13 1003.7
20260902090555 77 360 0.0 0.0 0.00 0.00 0.00 14 1003.7
20260902090033 77 217 0.0 0.0 0.00 0.00 0.00 13 1003.7
20260902085511 78 244 0.0 0.0 0.00 0.00 0.00 13 1003.7
20260902085059 78 237 0.0 0.0 0.00 0.00 0.00 13 1003.6
20260902084553 78 228 0.0 0.0 0.00 0.00 0.00 12 1003.6
20260902084019 79 246 0.0 0.0 0.00 0.00 0.00 12 1003.6
20260902083602 79 234 0.0 0.0 0.00 0.00 0.00 12 1003.6
20260902083049 79 295 0.0 0.0 0.00 0.00 0.00 12 1003.4
20260902082521 79 234 0.0 0.0 0.00 0.00 0.00 12 1003.5
20260902082106 79 283 0.0 0.0 0.00 0.00 0.00 12 1003.5
20260902081600 79 245 0.0 0.0 0.00 0.00 0.00 12 1003.6
20260902081023 80 261 1.0 0.0 0.00 0.00 0.00 12 1003.5
20260902080502 80 252 1.0 0.0 0.00 0.00 0.00 12 1003.5
20260902080044 80 211 0.0 0.0 0.00 0.00 0.00 12 1003.4
20260902075526 80 132 1.0 0.0 0.00 0.00 0.00 12 1003.3
20260902075008 80 239 0.0 0.0 0.00 0.00 0.00 12 1003.3